2020-085AA

Last updated on Fri Dec 04 2020 00:02:04 GMT+0000 (Coordinated Universal Time)

1 46953U 20085AA 20338.02627686 .00010864 00000-0 50014-3 0 9997 2 46953 97.3701 112.3807 0014629 266.0903 93.8656 15.20390500 1964
UTC large
Height (km)
Speed (km/s)
/
Latitude / Longitude
Inclination (degrees)
Orbital Period (minutes)
Azimuth
Elevation
Range (km)
Doppler Factor

Next 0 passes for location: London (51.5072 / 0.1276)

Sorry there are no passes over London.